GFSCGP_500_rhum_000.txt.gz
RH
2 2 3 5 6 22 30 76 70 69 77 69 72 70 49 53 37 34 7 4 5 4 4 5 6 6 7 7 8 9 9 12 10 6 7 10 10 9 11 13 14 13 13 11
2 2 3 7 29 33 74 84 75 80 86 70 64 69 55 49 32 27 44 26 34 6 6 6 4 6 7 7 8 8 8 9 9 8 9 8 8 8 9 11 12 14 14 15
2 3 6 8 37 61 77 85 87 63 87 87 76 66 70 46 66 70 84 50 30 36 6 7 6 4 6 6 8 9 9 9 10 10 9 8 8 8 8 8 8 9 9 10
3 4 5 6 15 42 86 77 60 54 66 88 69 74 61 45 59 68 82 82 70 21 4 5 8 7 7 7 7 8 8 8 8 9 8 9 10 10 9 8 8 9 9 8
3 3 3 3 11 38 60 57 54 50 54 60 68 81 63 54 30 46 69 73 76 47 48 14 4 8 7 8 8 7 6 6 7 8 8 7 6 6 7 10 9 8 9 9
3 3 3 3 21 36 57 54 52 50 49 48 52 80 74 55 44 51 63 64 54 53 60 20 4 3 6 7 8 7 5 5 6 7 10 8 6 6 6 9 9 8 8 8
4 4 3 3 10 19 49 50 50 52 49 47 47 48 46 44 46 54 65 57 66 44 47 35 38 25 7 8 9 14 21 17 14 11 13 7 6 7 9 10 9 8 8 9
4 4 3 3 9 20 38 47 44 48 51 49 46 46 46 59 65 66 66 62 44 33 17 11 44 39 20 26 26 21 10 5 6 8 8 7 6 8 10 9 8 8 8 8
4 4 5 5 7 18 32 36 38 35 36 40 44 64 58 61 67 62 57 54 58 57 47 30 6 6 20 36 18 7 8 9 10 11 8 8 9 10 10 10 9 10 10 8
5 5 8 14 29 32 35 26 33 36 42 59 63 69 65 68 66 64 65 68 66 60 43 38 12 7 12 12 11 11 10 10 11 17 17 18 7 6 8 9 10 12 10 9
5 8 14 36 39 44 48 45 50 41 40 58 60 64 58 54 64 70 69 70 70 60 37 36 28 19 16 11 14 14 12 12 14 16 16 40 26 5 5 10 12 12 10 10
5 10 22 21 41 44 53 38 54 57 56 47 53 58 54 56 58 65 68 61 54 56 46 35 29 44 35 28 13 12 14 15 16 17 26 61 30 5 5 13 12 12 13 13
14 15 22 37 47 46 52 53 49 55 58 49 50 57 51 55 63 56 68 59 47 46 61 50 47 57 33 29 15 6 9 12 16 17 41 54 48 27 8 10 11 14 16 15
40 28 23 31 43 50 55 58 59 56 54 45 47 51 48 49 62 66 61 61 45 52 64 65 58 53 18 31 25 9 8 14 18 27 53 53 55 43 11 7 11 16 19 16
44 36 35 52 60 58 53 57 56 59 51 58 51 52 53 52 38 46 54 70 64 64 64 57 56 48 37 24 32 18 10 14 17 28 46 49 65 38 27 20 12 19 20 17
46 40 41 57 57 56 60 56 60 61 57 66 65 57 59 55 70 69 72 72 56 51 68 51 35 35 38 36 36 18 7 12 14 44 62 78 93 51 67 46 16 20 19 18
50 44 46 56 56 55 76 58 64 79 82 72 69 49 52 63 60 58 61 66 70 74 70 61 45 56 58 55 44 25 5 7 8 29 55 92 96 84 62 53 25 21 20 25
47 47 46 54 52 52 57 90 60 58 67 70 62 56 59 66 64 61 57 55 64 73 72 64 72 70 72 52 50 8 9 10 22 68 75 63 79 77 55 52 26 19 27 32
57 49 51 50 56 52 57 61 68 88 65 60 50 50 52 63 62 62 58 66 68 67 66 72 71 87 58 30 15 4 8 13 35 45 73 79 74 65 73 49 21 21 31 41
55 55 61 55 54 50 50 50 49 53 69 72 50 52 65 73 58 58 66 69 53 78 86 90 85 79 61 47 45 12 8 12 23 51 60 65 74 85 67 37 21 30 39 72
72 55 62 64 73 62 53 50 47 44 46 44 43 65 78 76 84 89 78 82 78 83 87 92 96 89 76 67 10 5 8 13 32 51 61 73 80 88 89 32 27 39 76 96
80 80 74 60 57 53 52 52 50 46 42 42 51 76 87 90 85 69 68 72 80 80 89 98 94 78 40 30 8 7 16 30 47 74 89 75 93 95 91 68 35 62 94 93
96 92 86 76 78 75 70 66 62 60 55 64 75 75 64 48 93 89 91 92 90 96 64 89 55 36 38 32 15 27 70 87 90 94 95 65 77 97 96 97 93 95 95 89
72 91 75 94 91 90 77 77 94 89 84 67 73 70 74 76 68 55 53 61 75 82 69 75 51 44 22 14 20 30 39 97 84 96 96 94 69 87 95 96 88 93 82 30
77 81 62 96 75 92 91 96 79 91 98 98 93 94 96 98 96 93 65 86 75 80 95 69 73 57 22 28 45 46 58 55 65 94 98 92 93 94 96 97 74 38 24 11
60 81 88 76 54 83 90 85 77 75 91 89 97 93 92 83 93 88 94 91 91 98 76 55 53 57 49 70 91 65 71 84 96 95 98 92 96 95 85 62 39 38 36 17

GFSCGP_500_rhum_003.txt.gz
RH
2 2 3 11 13 27 38 51 46 55 60 58 68 62 61 64 44 27 10 2 2 3 3 3 4 4 5 6 7 8 10 11 6 5 6 6 6 8 10 13 14 13 14 13
2 2 4 12 19 39 35 54 70 87 76 88 86 84 53 68 57 39 34 38 12 2 3 6 4 4 5 6 8 8 8 9 9 8 8 8 7 7 7 8 10 10 10 11
3 3 7 4 15 36 33 27 70 71 80 86 97 95 69 70 58 66 86 66 46 34 28 5 7 5 5 6 8 8 8 9 9 9 9 8 8 8 8 8 8 8 8 9
4 4 10 4 8 26 28 47 70 86 81 65 63 67 79 77 57 74 72 65 63 58 21 8 6 7 6 7 7 8 8 8 8 7 8 8 7 6 6 8 10 10 9 8
3 3 6 3 5 34 46 75 84 78 64 50 50 65 64 80 63 50 60 61 68 66 70 58 25 5 7 8 7 6 6 7 6 6 7 8 9 7 6 6 6 8 10 9
3 4 6 5 5 52 48 81 81 65 55 49 47 60 54 44 68 60 47 58 66 69 61 52 55 4 3 7 10 9 7 6 5 6 9 16 14 12 8 8 7 8 9 9
4 4 6 7 8 44 48 74 70 58 51 48 50 51 40 43 55 54 54 57 60 52 30 53 32 24 29 11 6 6 7 7 9 15 12 8 11 9 8 7 7 10 10 9
4 4 6 6 4 18 36 72 60 56 51 51 49 48 22 52 65 67 68 63 60 60 55 27 39 38 35 32 26 8 11 20 9 6 11 12 9 8 8 9 10 10 9 8
4 4 5 7 8 12 43 60 54 52 52 51 49 49 43 48 56 65 65 57 53 46 53 38 32 30 54 61 33 21 13 9 10 13 15 19 18 18 9 3 6 8 8 13
4 4 4 6 11 21 48 45 54 48 43 43 45 48 50 48 56 61 53 62 56 54 50 42 21 13 13 16 18 17 14 12 11 12 15 17 17 17 37 11 2 4 10 12
7 5 5 6 5 6 24 29 34 39 35 25 17 20 46 48 50 47 66 64 64 67 57 51 42 11 17 22 22 18 15 13 12 12 14 18 19 35 59 34 3 4 12 14
18 6 7 6 6 5 29 20 32 33 22 30 26 21 44 56 54 64 72 64 61 58 46 55 59 34 19 21 21 16 9 9 12 13 15 18 23 42 64 57 52 10 10 11
28 14 5 16 12 14 19 25 29 46 40 42 37 37 34 51 60 52 59 56 51 50 40 45 53 49 37 23 26 21 25 19 8 12 16 19 21 65 69 62 52 38 10 10
42 19 8 5 8 21 27 36 45 52 47 45 42 45 41 30 47 38 30 35 34 40 48 57 60 56 52 50 39 40 41 34 20 10 12 18 20 53 61 54 50 51 30 26
62 50 30 5 17 33 40 40 46 54 52 50 44 53 43 48 45 37 42 37 21 21 32 54 56 54 61 46 44 46 47 40 40 11 8 12 23 63 83 67 68 84 60 50
49 49 47 16 29 44 49 49 55 55 57 57 57 49 52 52 53 51 54 45 39 28 35 60 59 52 49 58 44 44 46 40 44 15 5 11 51 90 81 70 85 69 78 66
48 47 48 45 34 48 55 62 57 54 54 58 61 44 58 66 56 49 51 62 58 46 47 56 56 66 69 62 58 57 50 24 12 7 13 26 20 90 83 80 77 68 84 79
50 44 47 44 35 46 79 65 61 60 56 56 65 60 61 58 59 57 64 66 62 55 60 58 64 67 77 71 65 66 67 55 38 39 20 82 69 79 82 73 69 87 90 90
62 51 49 51 44 46 82 65 61 66 62 60 66 60 56 49 52 58 63 64 70 67 67 71 75 84 77 77 73 77 69 59 47 21 12 60 73 69 65 64 72 87 85 92
75 59 52 52 51 51 68 73 65 63 64 77 59 72 64 50 47 50 59 63 71 75 81 98 98 92 82 73 88 81 68 59 45 49 35 51 89 75 77 68 74 87 77 94
68 66 63 60 55 53 64 77 72 67 52 51 56 60 51 48 45 49 55 63 70 76 90 91 88 93 85 70 92 85 78 55 33 33 38 44 70 65 79 82 80 68 97 96
76 90 69 70 63 61 63 61 77 81 61 57 56 58 54 50 52 70 74 75 74 62 70 82 71 72 88 77 89 84 52 41 33 40 57 81 83 69 75 94 95 84 91 92
99 79 88 97 81 78 69 63 70 66 65 57 54 54 54 52 50 64 67 78 95 76 88 77 80 98 97 94 60 59 54 50 48 41 38 43 86 86 96 96 96 97 100 87
71 90 98 98 85 79 70 73 80 84 67 61 56 56 58 60 62 75 78 82 68 74 87 87 94 88 97 75 56 52 45 58 53 77 89 91 88 86 97 96 96 89 98 96
53 74 92 97 91 90 77 74 74 84 78 73 80 84 75 83 85 78 81 89 88 94 93 87 81 93 74 61 61 57 60 89 90 96 92 85 94 96 96 79 96 91 95 94
94 99 97 66 91 96 90 93 85 92 88 84 90 85 92 92 87 91 88 63 78 60 54 54 41 75 90 64 39 31 93 88 81 65 71 58 94 96 81 40 53 78 83 86

GFSCGP_500_rhum_006.txt.gz
RH
2 3 3 8 14 17 17 40 46 74 67 80 88 88 78 69 52 47 14 5 1 4 3 3 4 4 4 4 4 5 9 10 7 6 6 6 6 7 9 10 10 9 9 9
2 2 10 32 23 15 9 28 51 74 74 84 94 98 76 74 67 64 42 31 6 1 2 4 5 3 4 4 6 7 8 9 7 7 8 8 7 7 7 7 8 8 9 8
2 6 20 28 22 11 6 16 39 56 79 80 89 81 76 80 66 69 80 66 53 28 26 36 7 6 5 6 6 7 7 8 9 10 8 7 7 7 7 7 8 9 10 10
2 8 26 16 18 18 9 15 42 67 82 78 84 62 72 88 75 65 58 63 68 65 40 22 13 6 6 6 7 7 8 8 8 8 7 7 8 8 7 7 7 6 7 8
4 4 13 14 11 14 13 23 42 80 90 85 76 67 45 72 82 59 52 52 58 64 65 63 62 44 5 7 6 6 7 7 7 7 6 6 7 8 7 11 10 7 8 8
5 8 13 15 19 23 16 74 85 78 80 76 47 44 39 46 54 75 63 53 56 62 67 53 59 45 38 6 7 8 8 7 6 6 6 8 9 9 8 10 8 8 7 6
4 6 10 22 30 31 20 51 70 68 81 78 66 42 31 42 53 55 55 60 55 61 61 40 36 44 31 3 4 7 8 8 7 7 7 10 7 8 10 9 7 8 8 8
4 7 9 12 23 34 21 46 56 76 78 75 71 21 27 46 58 59 63 62 51 56 63 48 34 33 46 36 28 21 18 18 16 14 6 8 12 13 11 9 9 6 4 4
5 5 9 19 19 32 24 37 58 78 73 68 68 40 28 40 50 62 67 70 65 63 59 43 42 34 25 39 44 35 19 16 10 9 9 11 13 19 17 16 21 26 4 2
6 5 6 11 21 31 35 29 58 74 70 65 60 44 28 36 38 37 59 63 63 65 53 40 48 39 15 12 11 16 18 16 14 12 11 11 12 14 16 16 23 53 31 6
14 7 6 6 8 12 26 29 43 57 68 64 56 49 41 34 37 41 50 59 55 66 42 40 46 29 10 9 12 15 14 10 7 6 8 9 94 34 14 18 31 60 65 56
35 30 8 6 6 8 13 18 25 51 50 65 58 38 38 31 28 46 57 51 57 64 47 53 48 55 46 18 15 17 17 25 27 26 18 88 11 98 23 22 53 56 66 56
63 38 18 9 13 7 10 12 16 40 54 57 58 34 29 28 49 58 59 51 64 66 53 50 49 58 47 38 33 44 39 44 48 47 40 32 15 13 22 34 61 65 68 58
77 44 27 7 5 8 8 10 27 28 47 40 29 23 23 32 43 50 56 57 53 53 47 53 62 62 60 57 56 53 53 49 52 46 45 43 32 15 53 22 54 62 73 74
77 56 28 11 7 12 9 7 8 10 15 28 14 31 36 36 36 42 35 42 46 39 34 50 56 61 50 50 51 63 63 48 46 40 25 17 18 15 12 28 87 90 82 69
66 50 26 14 12 13 18 14 10 13 30 33 38 47 48 52 60 46 49 54 30 24 27 32 36 42 46 51 53 57 66 66 62 54 56 50 34 22 64 74 98 55 81 74
66 60 44 29 25 18 33 26 20 32 42 40 51 43 55 60 57 49 46 48 34 39 39 44 42 40 53 60 70 63 67 74 77 65 62 61 40 19 70 96 97 83 80 96
81 59 61 42 53 59 19 31 38 46 46 49 55 57 57 57 54 59 66 51 50 59 66 67 68 68 60 57 75 71 85 74 68 71 67 61 46 56 80 75 93 96 92 94
90 94 82 50 50 49 44 40 48 49 54 59 57 56 58 59 56 57 58 55 56 68 72 91 92 97 77 66 69 84 86 72 70 79 75 71 43 35 80 94 94 96 81 86
100 92 80 57 51 50 45 40 45 50 75 69 61 55 56 56 56 58 60 55 57 65 74 82 86 74 93 68 66 90 84 73 64 82 76 72 53 51 65 78 82 99 84 77
89 94 95 65 49 49 49 46 48 62 59 84 62 58 60 59 61 61 51 47 56 59 60 66 91 93 83 62 45 48 72 78 73 82 96 51 46 50 64 75 88 91 95 88
97 86 96 96 58 55 52 50 49 55 86 80 64 66 62 68 67 64 64 53 53 54 57 64 61 74 77 89 75 99 89 97 80 65 77 58 54 57 75 93 97 93 91 96
76 96 96 89 70 69 57 59 57 63 70 75 83 64 65 62 66 62 58 56 58 61 66 66 66 76 62 93 62 95 77 98 63 60 69 70 69 68 82 99 97 97 98 87
88 81 98 96 77 68 66 66 73 74 68 68 79 92 69 71 72 67 69 79 83 87 84 89 98 90 97 74 66 73 64 92 89 81 82 95 94 94 94 95 94 98 99 94
92 88 84 97 95 86 75 78 74 71 77 84 87 84 82 75 76 82 79 81 73 70 67 77 75 74 65 64 41 66 72 71 86 86 48 91 90 74 70 73 52 97 96 95
88 72 59 69 97 98 93 97 93 94 94 89 94 97 92 89 80 85 82 77 73 71 81 55 83 93 69 41 29 29 20 27 34 32 27 36 59 58 47 49 43 44 46 41

GFSCGP_500_rhum_009.txt.gz
RH
2 2 2 5 14 23 38 39 63 79 77 63 77 71 65 59 54 54 19 7 2 4 4 3 4 4 3 2 3 3 4 6 16 6 10 10 8 10 8 15 13 14 9 8
2 2 4 24 22 21 25 50 56 70 75 75 79 76 67 70 70 67 67 48 14 2 3 4 5 4 4 4 4 4 5 7 6 6 7 7 7 7 8 7 8 8 8 9
3 2 10 18 19 14 19 28 51 59 78 82 84 67 74 68 67 73 70 70 63 20 4 11 23 6 5 4 4 5 6 8 8 7 7 7 7 7 7 7 7 7 6 6
2 3 11 14 15 14 8 15 44 62 66 62 87 60 77 86 77 70 59 56 71 70 62 44 24 21 7 5 5 6 6 7 8 8 8 7 7 7 7 8 7 7 9 7
2 2 6 19 11 17 9 14 46 63 68 56 71 63 71 80 64 65 58 55 53 54 62 60 46 27 26 11 6 6 6 6 7 7 7 7 6 6 6 7 7 8 8 6
1 3 6 15 38 34 34 34 21 34 63 66 42 49 43 45 57 68 80 61 62 56 59 51 41 58 59 54 34 7 6 6 6 7 6 6 6 6 5 5 8 8 6 5
1 2 6 14 52 62 47 60 62 39 48 36 31 34 30 44 55 60 75 85 73 65 56 60 44 25 47 44 46 11 6 5 5 4 6 3 7 5 7 10 9 7 8 7
2 2 4 14 33 44 43 47 50 66 47 40 34 17 28 47 55 55 58 71 67 54 52 65 61 35 21 27 26 15 4 4 8 18 11 9 6 9 13 18 19 18 19 22
4 2 12 32 36 38 48 48 44 56 70 67 52 22 22 42 55 58 61 61 60 65 66 64 58 37 32 20 16 24 30 26 22 13 11 11 10 10 12 15 16 18 18 47
7 4 13 34 58 58 41 53 60 49 59 72 58 33 17 31 43 56 55 63 62 64 62 67 46 38 44 30 17 10 10 13 13 10 8 8 8 8 10 59 37 18 12 24
13 9 6 30 45 56 52 49 65 54 43 54 57 34 23 25 26 39 42 44 59 58 59 59 46 48 39 24 7 8 10 8 11 16 19 23 24 59 93 47 77 66 16 78
30 20 9 5 18 45 52 47 43 58 32 31 42 48 30 45 41 27 28 25 53 49 57 54 48 59 45 44 14 24 31 32 33 37 39 39 38 37 63 95 60 60 34 49
30 33 28 10 7 11 32 38 43 54 57 42 38 34 31 44 50 35 40 26 52 55 53 42 51 51 44 44 28 38 51 49 54 47 39 34 32 25 26 94 38 52 67 36
38 31 28 19 6 5 7 15 29 44 49 43 27 26 19 42 44 45 34 51 62 62 58 44 60 43 56 57 57 59 58 65 70 60 54 53 37 33 40 43 69 71 57 95
64 36 40 22 18 13 7 7 7 15 20 28 16 10 8 31 44 47 42 53 56 65 55 57 53 44 57 56 59 58 67 78 80 77 75 70 61 49 39 71 84 99 96 93
74 59 58 43 30 46 20 8 8 6 8 15 10 9 9 19 26 46 44 54 37 46 53 50 50 43 53 57 47 56 70 74 57 71 72 65 66 66 66 75 70 93 97 97
88 78 76 52 60 42 29 19 10 8 6 7 8 6 9 13 42 49 58 62 49 55 50 39 43 47 46 58 51 60 45 41 49 50 53 56 62 63 70 73 79 93 99 96
89 78 89 87 68 54 14 19 11 10 7 7 9 7 7 36 55 53 60 61 56 51 53 50 56 65 68 52 31 26 43 42 45 45 62 73 75 81 78 81 69 79 92 82
84 86 66 94 75 43 23 28 17 15 9 8 7 8 19 53 58 60 61 59 59 49 54 65 65 64 51 38 46 47 51 47 37 58 69 97 80 81 91 96 89 62 62 73
66 80 70 91 91 46 32 45 34 28 21 16 12 17 36 52 57 59 61 59 57 56 55 63 71 64 57 44 48 60 64 51 51 59 69 80 75 75 61 59 75 56 63 60
28 57 79 94 96 62 40 51 40 39 34 25 33 39 50 58 56 58 61 61 61 57 60 65 67 63 61 53 52 68 69 52 64 78 87 91 85 84 64 66 69 70 70 68
28 30 70 97 94 77 47 53 54 39 46 46 49 60 57 60 54 51 56 58 63 63 66 68 77 60 54 55 66 69 63 65 78 95 62 56 50 73 73 68 72 89 73 66
36 24 30 97 96 79 54 52 52 50 47 48 74 58 80 68 65 70 70 69 68 67 70 63 61 60 62 77 79 75 76 81 88 85 51 51 56 90 68 77 62 77 97 92
55 32 31 88 90 97 70 57 55 55 50 66 59 66 75 69 94 85 73 72 72 74 82 64 63 69 64 69 78 78 92 92 67 49 48 44 51 66 84 64 58 66 76 73
60 53 41 51 90 97 82 69 62 57 54 53 58 66 68 93 92 82 84 76 71 64 60 62 61 60 66 76 75 69 71 86 78 51 50 44 21 22 28 28 36 33 72 64
79 80 76 78 80 96 90 88 79 78 66 72 74 73 72 59 88 91 77 64 70 74 72 76 72 75 72 80 79 29 30 43 61 61 53 25 11 19 35 39 40 48 52 61

GFSCGP_500_rhum_015.txt.gz
RH
2 3 6 19 31 45 73 74 75 88 90 30 80 95 32 34 20 9 3 3 3 3 3 3 4 4 4 4 4 4 4 3 3 57 46 29 15 12 19 13 11 9 15 12
2 2 5 29 44 48 72 72 70 87 85 88 84 96 98 54 30 19 10 4 3 3 2 2 2 2 2 2 2 2 2 3 5 23 15 11 8 6 6 6 7 16 13 7
2 2 3 11 42 53 68 69 69 76 83 98 86 97 90 92 44 28 19 13 8 4 2 3 4 4 3 3 3 3 3 3 4 8 14 29 27 18 15 6 6 6 7 7
2 2 2 4 12 38 61 68 71 71 88 98 87 83 97 70 89 35 27 21 18 20 7 2 3 5 15 8 4 3 3 4 4 11 10 19 18 7 6 6 7 6 6 6
3 3 2 2 3 20 35 66 70 72 79 90 86 77 90 99 85 74 44 41 32 24 27 39 34 30 26 21 18 7 4 4 4 5 9 11 10 7 6 6 5 4 5 5
2 3 3 2 2 5 23 64 70 65 68 83 90 88 79 92 94 97 85 64 44 41 46 48 54 55 48 41 28 25 18 7 6 6 7 7 11 8 5 5 4 6 6 10
4 3 3 3 2 2 9 53 65 65 64 63 79 76 93 88 85 77 85 99 80 47 45 47 46 44 33 23 26 40 47 44 38 13 6 6 6 4 12 10 7 8 11 14
5 4 3 3 2 3 2 19 51 64 61 60 66 72 67 92 87 90 89 82 91 67 54 52 53 25 30 34 21 16 27 44 49 42 13 7 4 7 13 9 10 9 9 11
8 6 9 4 4 4 10 15 41 57 61 60 60 64 82 88 89 86 81 79 86 68 68 53 49 49 41 18 24 18 15 16 30 24 12 10 15 14 11 7 7 10 32 50
8 36 33 14 15 4 7 22 40 58 57 60 57 61 71 75 72 81 84 79 83 68 68 59 55 54 58 41 29 12 12 7 7 17 19 19 12 8 32 33 31 35 36 52
9 12 40 60 7 4 5 8 44 52 59 56 60 63 57 74 92 63 73 73 79 85 60 61 61 53 61 53 32 30 15 3 4 8 10 9 19 32 28 25 33 40 36 70
12 14 28 40 49 44 37 28 37 54 59 60 55 54 68 64 75 71 73 76 82 83 59 62 65 56 43 45 47 28 20 6 6 7 10 35 31 28 38 45 47 51 52 60
52 17 48 70 51 41 12 10 31 38 60 63 63 55 70 82 70 75 75 55 68 91 97 59 53 57 40 48 54 28 26 13 8 14 29 32 33 34 33 34 40 64 72 62
39 76 21 61 43 52 46 40 40 39 41 51 63 66 71 68 74 77 61 50 70 78 62 48 47 56 48 44 58 45 30 27 27 27 30 36 40 40 39 42 59 73 84 81
17 13 57 31 82 74 51 42 41 40 46 50 51 63 71 74 74 74 75 56 48 64 46 29 35 31 40 43 58 46 36 42 39 32 31 34 44 42 34 45 61 69 90 92
17 14 22 72 79 76 70 63 55 50 42 44 49 54 59 65 93 85 73 39 34 47 73 26 33 48 44 46 61 55 36 37 46 29 25 26 43 33 39 45 61 67 76 82
21 58 28 20 81 90 79 65 67 63 59 55 51 31 56 68 71 73 78 80 26 17 33 37 38 51 50 65 72 69 59 50 29 26 27 33 30 32 52 60 70 82 97 94
28 35 85 91 92 95 44 88 78 74 72 76 70 62 52 42 50 70 69 73 24 10 22 34 34 46 54 71 73 68 58 38 26 22 33 43 56 65 78 80 77 80 91 92
82 58 89 96 86 82 76 94 71 70 69 79 71 84 72 57 50 46 11 10 14 14 17 66 48 50 50 63 67 64 51 33 28 33 40 48 58 69 74 78 60 67 85 100
29 70 99 100 90 92 92 92 96 88 67 68 73 73 76 63 53 32 7 4 6 9 14 26 51 54 52 63 52 48 35 37 42 51 49 50 50 56 63 62 68 72 92 97
28 32 38 91 98 90 96 71 77 93 72 76 57 49 56 70 54 51 70 32 8 7 25 29 52 56 61 68 56 55 52 53 57 61 54 54 50 53 62 61 72 88 99 98
26 23 70 97 99 92 89 78 77 86 56 53 62 59 36 48 79 80 70 53 20 7 21 36 49 54 60 56 54 58 54 57 60 62 62 57 54 56 66 65 74 77 97 100
47 57 92 100 86 84 65 90 53 41 40 57 69 68 52 53 78 66 44 24 17 13 39 50 53 60 60 56 59 63 62 64 68 75 82 63 58 60 60 57 66 78 92 87
99 100 100 97 89 88 88 68 52 19 30 40 72 72 59 52 30 16 15 13 19 45 54 54 58 60 59 60 61 66 65 68 70 72 78 68 60 58 55 59 72 89 57 26
64 94 95 84 67 53 56 59 22 20 21 25 72 70 50 40 29 30 25 40 37 49 55 58 57 59 61 62 64 66 66 74 79 70 72 64 64 63 63 65 78 88 39 22
96 99 73 82 68 42 54 35 26 25 62 34 79 94 68 51 47 33 52 57 55 56 61 64 60 57 64 66 67 70 81 79 76 79 70 60 62 68 63 70 76 48 36 25

GFSCGP_500_rhum_021.txt.gz
RH
2 2 2 2 6 21 39 35 51 74 81 91 80 83 84 68 28 9 3 3 2 4 2 1 1 2 2 2 3 3 3 3 4 5 58 39 31 21 17 10 12 11 24 19
2 2 2 2 6 11 31 31 45 87 92 87 78 86 74 71 39 32 3 3 3 2 2 2 2 2 2 2 2 2 2 2 2 5 21 16 12 12 6 6 6 10 6 6
2 2 2 2 2 4 18 33 39 85 95 87 97 84 65 82 67 63 5 8 8 4 2 2 2 2 2 2 2 2 2 2 2 3 7 12 31 25 20 15 6 5 5 5
3 2 2 2 2 2 5 29 47 81 97 66 89 83 93 95 68 83 34 25 15 12 7 3 2 3 2 2 2 2 2 2 2 3 3 10 14 23 19 8 6 6 6 4
4 2 2 1 2 2 2 33 46 77 78 85 85 97 96 76 68 71 76 71 22 17 14 18 16 9 2 3 3 4 4 4 3 3 3 4 9 11 24 11 6 6 8 6
4 3 3 2 2 2 2 9 35 68 74 81 73 86 82 95 70 80 76 79 83 56 40 17 33 33 22 19 9 3 8 14 15 11 3 3 4 5 7 7 5 10 9 7
5 4 3 3 2 3 4 3 16 44 63 64 73 74 54 85 90 72 51 97 83 85 50 56 60 52 35 31 40 39 25 17 27 27 18 5 5 6 7 6 6 8 9 8
7 5 4 4 3 3 3 5 2 8 11 42 55 65 31 43 73 91 69 81 89 97 64 76 62 54 46 39 32 32 32 28 27 31 37 33 38 42 30 9 9 10 7 26
10 8 6 6 5 4 7 4 8 11 16 35 26 48 58 59 60 82 94 92 93 88 78 82 69 60 43 31 23 18 17 11 10 11 19 40 44 43 32 12 10 12 18 26
14 10 8 8 8 9 8 10 16 16 14 10 8 38 33 53 54 57 66 88 84 84 78 70 78 44 38 30 36 18 26 19 12 7 7 7 22 34 22 11 17 24 29 27
23 16 13 11 11 11 9 7 11 16 17 14 16 5 23 56 63 66 64 63 64 67 65 59 59 44 34 29 38 33 21 25 14 11 3 2 4 17 13 7 27 34 34 40
36 31 16 14 15 24 18 13 14 12 10 21 25 5 26 56 64 78 65 58 65 66 80 62 61 67 48 27 23 27 26 31 16 14 6 3 3 6 6 16 34 34 41 36
56 40 37 20 20 20 29 32 19 19 16 8 14 3 12 51 69 77 80 95 90 92 76 79 83 76 48 30 23 30 34 33 28 16 10 6 9 14 21 25 37 38 31 27
64 59 37 26 20 33 30 39 46 31 17 8 6 6 5 45 57 71 79 97 87 95 97 91 62 58 54 56 33 32 33 38 37 26 19 22 25 27 35 40 38 37 41 32
57 61 56 38 41 33 34 59 63 47 20 18 10 7 5 32 47 50 68 77 72 86 88 74 67 78 72 46 40 35 34 39 45 34 23 32 35 32 33 39 36 34 36 44
62 60 61 59 55 50 37 55 62 64 57 39 24 10 9 19 45 54 55 59 72 92 88 85 89 83 75 43 39 37 36 39 44 51 37 32 31 37 41 36 35 38 46 45
65 67 69 65 59 66 60 32 63 65 62 53 34 13 20 20 36 57 81 90 72 72 93 90 95 80 72 56 55 35 18 34 29 35 50 37 34 31 44 37 43 40 44 48
67 71 67 68 62 69 35 44 63 73 71 61 56 49 26 12 28 53 62 60 55 76 78 97 97 88 90 72 66 64 34 24 22 26 57 46 37 32 49 45 46 52 46 44
88 79 72 73 66 61 58 43 64 80 81 72 62 48 49 17 22 29 54 44 52 62 70 95 88 96 95 86 72 66 44 24 23 46 57 50 54 54 36 50 47 45 46 54
96 96 86 80 74 62 44 59 62 77 79 67 60 58 62 34 21 14 38 51 57 61 68 80 94 66 80 94 78 66 57 29 23 31 65 66 69 54 35 50 49 50 54 61
98 98 97 86 81 67 62 63 71 84 63 64 59 61 60 48 22 19 20 28 42 59 60 69 63 61 75 82 70 42 32 20 24 37 59 74 70 55 37 44 52 55 70 86
97 93 93 97 89 80 66 62 75 88 84 68 68 58 52 43 47 45 35 30 31 46 55 63 71 73 78 76 57 51 16 12 21 39 54 68 61 45 55 57 63 75 89 85
95 98 91 99 98 93 71 85 87 85 62 65 46 50 59 63 59 37 44 38 32 35 44 47 65 69 79 74 50 66 70 36 27 56 65 68 65 59 60 62 77 84 89 82
100 96 81 91 90 68 74 96 97 60 47 56 53 63 65 52 52 49 46 40 37 42 62 58 52 53 61 76 84 78 77 54 51 62 64 70 64 67 73 74 73 79 76 86
97 97 98 74 80 69 90 70 61 62 62 68 73 64 65 75 66 58 46 45 42 35 31 60 77 65 47 65 72 74 74 65 58 59 67 73 66 74 80 79 80 91 94 97
97 97 89 80 69 98 87 85 77 71 96 78 64 54 69 60 48 39 32 23 12 34 50 96 72 63 66 93 87 90 71 45 61 62 76 88 79 77 77 84 94 97 93 94

GFSCGP_500_rhum_024.txt.gz
RH
2 2 2 3 6 19 49 72 44 62 78 83 86 90 96 88 68 58 38 5 2 4 2 2 3 5 5 5 6 6 5 5 4 14 51 48 25 21 10 16 19 12 19 17
2 1 2 2 4 13 33 58 57 40 49 77 91 87 89 81 82 47 30 20 3 2 3 2 1 2 2 2 3 3 2 2 2 6 18 13 12 13 11 12 6 9 8 5
2 2 2 2 2 4 13 28 54 50 61 58 89 92 88 85 94 57 48 18 5 3 3 2 2 2 2 2 2 2 2 2 2 3 10 15 15 13 6 10 12 5 5 5
2 2 2 2 2 2 4 16 54 70 69 66 85 96 96 93 93 65 60 46 43 4 6 6 3 3 3 2 2 2 2 2 2 2 3 4 11 35 32 20 7 5 6 5
4 3 2 2 2 2 2 20 54 71 78 90 83 91 66 93 54 76 73 63 54 40 8 21 21 34 30 10 3 3 3 3 2 2 2 3 8 8 9 22 13 5 7 7
5 4 3 3 2 2 2 11 42 68 80 81 64 71 44 76 68 46 65 74 59 48 64 31 38 24 38 28 24 19 4 4 8 12 9 4 3 5 7 8 7 5 7 8
9 7 4 3 3 2 2 2 20 42 70 33 64 65 32 63 69 51 66 55 53 62 77 71 34 47 39 34 28 31 32 24 8 13 21 20 12 4 4 5 6 6 7 9
11 9 8 5 4 3 2 2 2 19 30 44 59 55 14 54 69 67 77 75 72 66 76 94 76 46 41 40 32 34 38 36 31 23 29 33 31 20 12 29 27 8 8 5
16 13 9 6 5 4 4 3 3 4 12 28 16 44 25 31 77 67 72 80 74 65 75 81 66 38 40 40 31 27 24 21 22 21 19 16 17 34 36 42 32 10 7 15
19 17 13 8 7 5 5 6 6 4 3 5 6 18 8 19 37 55 61 68 75 74 76 64 83 85 41 52 46 28 22 13 11 10 7 8 9 10 28 44 15 8 15 23
29 23 16 11 9 7 6 5 5 7 10 6 3 2 2 4 40 51 60 57 59 61 67 65 67 68 52 49 53 39 29 19 12 10 12 4 3 4 20 28 11 14 23 22
24 29 17 14 11 9 8 12 8 6 6 6 5 3 5 6 38 65 65 64 68 63 64 78 74 74 62 53 55 43 32 22 19 12 12 6 2 2 17 13 19 24 28 23
19 14 13 17 16 14 13 10 9 11 11 7 6 5 8 8 28 47 61 62 74 85 96 94 88 91 82 55 74 53 29 21 21 15 18 9 4 5 10 16 22 30 28 22
29 17 13 8 14 16 13 13 12 10 11 9 8 8 7 13 24 45 61 59 84 84 98 87 96 91 91 83 86 63 40 37 27 18 15 12 12 14 20 23 26 35 21 24
40 23 18 11 10 32 22 17 16 13 13 13 11 11 11 10 30 55 69 70 59 69 85 87 78 85 86 86 88 72 59 47 33 23 16 18 27 26 30 34 36 28 21 26
61 37 36 17 12 19 36 28 19 15 19 16 16 16 17 13 12 53 59 56 59 53 69 85 66 64 82 83 72 75 52 46 46 43 32 21 23 25 36 35 33 28 27 30
70 54 57 32 30 34 62 18 24 22 26 21 18 29 21 17 12 14 42 46 64 74 62 69 62 63 74 76 74 66 65 59 68 50 39 34 27 25 30 51 41 29 30 32
70 69 65 50 60 74 13 33 36 41 48 40 32 58 32 20 17 12 18 40 52 68 75 60 72 74 67 84 85 84 69 57 54 61 55 34 36 51 31 36 53 41 44 44
87 79 73 65 71 66 46 29 43 49 57 65 43 31 34 29 27 19 12 29 48 81 85 80 64 64 69 77 93 88 59 55 73 70 59 32 47 65 65 42 47 55 54 45
96 93 94 91 67 66 52 54 50 52 54 64 59 45 34 37 39 20 13 12 26 45 56 80 73 69 71 59 79 79 69 57 52 70 55 43 45 67 73 60 55 53 58 58
98 97 96 98 91 73 66 59 70 63 53 51 55 57 46 54 56 33 20 15 12 26 43 55 55 52 52 78 72 65 73 52 55 73 76 60 46 69 77 80 72 46 49 58
98 98 91 90 96 98 75 70 73 69 56 60 57 71 74 73 61 50 32 24 20 18 29 50 50 46 54 65 76 83 83 72 70 71 59 53 47 54 72 82 84 65 44 49
97 97 84 95 96 96 84 90 82 68 54 44 66 72 79 73 65 61 52 36 33 29 29 32 42 52 48 67 66 62 60 70 73 73 56 43 28 39 54 76 76 56 50 59
95 97 96 98 97 96 71 73 87 69 69 58 63 74 70 66 59 53 48 41 35 39 35 34 40 41 40 43 48 54 60 65 73 82 65 25 32 31 38 51 65 55 59 70
80 99 91 96 96 86 74 75 66 64 58 57 52 61 51 39 42 60 59 54 48 36 35 26 28 31 31 37 53 56 56 56 73 80 87 77 70 59 42 44 67 68 67 84
65 97 93 94 97 95 71 65 61 54 52 54 57 52 55 44 43 50 64 67 47 36 25 24 30 37 47 48 43 74 66 61 60 74 84 86 82 69 55 47 74 95 94 97

GFSCGP_500_rhum_027.txt.gz
RH
2 2 2 2 6 16 28 49 66 65 57 28 65 70 86 94 94 94 62 13 3 3 6 6 10 10 4 12 10 7 9 8 4 29 57 44 47 19 15 21 21 11 16 14
2 1 2 2 5 12 22 34 68 68 56 48 60 56 82 85 97 100 43 28 5 3 4 3 6 9 9 4 5 5 4 3 3 10 38 25 14 16 12 11 7 7 9 5
3 2 2 2 2 5 14 22 60 62 75 74 60 48 50 60 89 91 36 25 12 4 2 3 3 3 4 4 3 3 3 2 2 3 14 14 9 8 6 6 8 9 4 5
3 3 2 2 2 2 8 15 63 65 80 74 54 48 46 66 72 70 60 59 40 16 6 2 2 2 2 2 2 3 3 2 2 2 3 9 10 22 24 20 16 6 6 6
5 4 3 2 2 2 2 21 50 64 73 75 58 58 38 56 54 69 50 68 68 75 28 7 4 4 6 5 4 3 2 2 2 2 2 3 4 8 17 17 20 17 6 8
7 5 4 3 2 2 2 15 37 66 72 62 39 46 39 41 46 58 68 80 56 58 68 42 23 10 27 24 18 17 8 4 5 6 6 4 4 4 7 8 12 12 7 6
10 9 7 4 3 2 2 4 18 45 55 7 36 29 15 58 50 50 51 81 77 74 62 92 67 71 34 13 14 15 18 22 14 8 12 14 13 13 6 4 5 6 6 7
13 12 11 8 5 3 3 2 2 4 9 8 20 12 4 50 63 71 82 76 84 67 68 80 85 93 77 42 28 19 19 28 33 35 24 19 24 26 20 10 5 23 24 9
15 14 14 10 7 5 4 3 2 2 4 6 4 3 6 28 53 82 73 62 72 78 78 83 73 64 54 52 28 26 20 18 20 31 36 32 32 38 38 36 27 32 25 10
18 15 17 16 10 7 6 6 4 3 3 2 2 2 2 12 30 58 61 45 46 66 72 81 71 70 75 65 43 36 28 25 18 11 10 12 18 17 23 36 44 35 14 9
15 14 16 20 15 11 7 6 6 5 4 3 3 2 2 3 16 44 63 54 43 59 57 66 79 82 78 81 58 48 43 30 26 18 10 10 10 7 10 17 45 28 11 15
17 14 12 15 17 16 11 8 8 6 6 5 4 4 4 3 5 18 37 52 48 39 61 65 78 91 95 78 75 48 51 41 36 25 12 9 9 3 3 9 45 18 14 23
20 17 16 14 16 18 14 11 9 8 6 6 6 5 6 6 6 6 16 47 43 30 60 62 79 88 88 86 73 59 62 55 43 22 15 9 9 5 4 9 26 13 17 25
25 22 18 16 19 21 15 13 12 9 8 7 6 7 7 8 6 5 4 25 50 53 57 70 61 71 94 98 90 73 74 67 36 29 19 13 9 6 5 8 12 10 23 24
33 25 23 19 16 20 17 14 12 10 9 7 6 8 9 9 8 8 8 18 38 44 26 54 56 75 72 97 93 90 86 79 46 40 29 26 16 14 13 10 11 18 21 27
42 36 34 23 21 21 20 14 10 7 10 10 10 9 11 11 11 10 10 12 9 14 29 26 44 37 53 70 94 92 93 82 85 71 42 44 35 23 18 18 24 26 27 28
67 49 45 30 34 28 27 13 13 10 9 12 10 10 12 16 14 12 9 7 9 13 12 22 43 56 69 78 86 92 86 81 85 81 52 55 51 42 28 25 28 33 30 32
82 74 62 44 49 45 10 24 23 15 12 11 14 12 14 20 21 17 13 10 10 22 18 25 38 40 45 51 67 75 76 62 76 73 53 69 59 52 44 35 31 46 53 38
95 88 77 66 64 42 26 30 37 36 23 22 19 19 17 20 28 20 18 13 11 17 24 35 50 44 46 42 47 50 62 65 55 57 80 77 60 61 53 43 50 53 46 54
99 98 98 86 71 61 41 44 41 37 39 27 17 18 30 21 14 20 23 18 14 11 28 41 43 36 29 37 49 60 66 75 55 52 69 78 68 54 54 39 57 66 63 55
48 97 92 93 82 64 59 60 52 59 26 34 31 32 58 30 19 31 31 24 19 14 13 25 50 35 36 53 58 60 46 59 58 70 83 84 76 67 61 52 60 69 74 67
26 74 91 96 98 82 74 76 77 68 41 40 37 35 48 48 46 46 34 31 27 23 18 24 57 67 64 60 77 82 76 58 73 86 86 86 84 81 68 62 55 64 74 81
34 48 61 92 89 69 83 83 80 80 62 42 43 44 43 48 53 51 46 34 33 32 23 18 28 41 56 79 72 76 76 55 70 93 98 93 97 95 94 88 70 54 62 77
52 45 51 66 92 71 98 90 80 89 86 83 47 49 46 47 54 63 59 58 42 35 35 36 31 25 25 38 51 46 44 48 88 96 95 85 90 70 73 92 94 80 61 62
42 80 66 63 92 72 91 94 79 72 75 75 77 66 49 53 60 63 66 68 61 46 45 39 42 44 44 49 48 50 49 50 55 58 63 79 86 76 83 81 72 53 42 42
68 75 80 74 68 77 81 91 77 78 78 72 70 71 61 54 58 66 66 68 68 62 58 52 50 53 54 57 53 51 44 42 42 41 52 52 60 74 94 96 86 55 59 53

GFSCGP_500_rhum_030.txt.gz
RH
2 2 2 2 4 13 28 44 60 58 49 34 33 57 60 85 90 88 79 69 4 4 8 10 11 12 12 24 26 14 13 16 18 18 21 44 34 15 16 25 19 12 21 16
3 2 2 2 3 9 16 28 57 64 63 44 34 60 52 70 96 97 98 56 8 4 4 8 10 9 6 17 17 10 8 8 4 34 53 50 34 20 11 13 10 6 10 6
3 3 2 2 2 3 8 13 43 60 71 58 50 28 55 79 73 91 79 32 11 4 4 2 6 10 8 6 5 6 6 4 4 7 30 20 18 15 10 10 8 9 6 6
5 4 3 2 2 2 4 12 32 58 64 71 61 26 44 68 67 62 55 28 22 6 3 3 2 2 2 3 3 2 3 3 3 3 8 15 10 12 12 8 14 12 7 6
8 6 4 3 2 2 2 10 24 51 64 57 55 29 27 40 61 40 55 15 21 14 5 3 3 2 2 2 2 2 2 2 2 2 2 3 6 9 19 24 22 19 17 8
9 8 5 4 3 2 3 5 19 40 50 27 20 21 11 27 49 61 42 20 22 12 19 16 4 3 3 3 4 3 3 3 3 2 2 3 3 5 7 9 9 11 12 8
11 10 8 5 3 3 2 2 10 23 27 3 20 22 6 21 43 68 61 76 67 43 25 47 65 48 78 36 16 18 18 18 12 5 7 7 6 8 10 9 6 6 6 10
16 14 12 8 6 4 3 2 2 3 3 4 13 4 5 16 51 63 82 92 97 80 62 33 62 80 88 77 52 27 21 20 24 26 19 11 14 14 13 13 8 6 7 23
14 12 14 12 9 7 5 4 2 2 3 3 4 2 6 14 27 59 72 88 87 83 73 80 79 74 80 64 34 28 19 19 21 29 34 33 26 22 26 25 16 9 21 35
17 15 16 17 15 12 8 7 5 3 3 3 3 3 2 4 16 53 52 61 78 70 80 75 72 71 74 74 62 36 32 20 20 16 12 20 29 29 30 33 37 34 43 39
23 18 17 20 14 13 11 8 6 5 4 4 4 3 3 3 5 25 51 66 72 74 76 84 82 84 86 88 78 65 51 42 26 26 21 13 9 9 14 20 21 42 49 46
28 24 21 21 19 17 17 13 10 8 6 5 5 4 3 3 3 9 47 64 61 58 65 69 86 98 96 95 96 82 74 42 35 31 26 20 12 10 8 5 9 16 43 39
28 26 24 24 22 17 14 13 12 10 8 7 7 5 6 5 4 4 16 38 52 51 43 48 61 77 89 79 88 99 84 56 53 42 30 21 14 13 9 5 4 7 36 24
30 30 25 23 24 23 20 15 12 12 9 8 6 6 6 6 6 7 4 11 22 33 37 45 39 58 70 79 74 75 82 68 71 66 39 26 17 14 8 6 4 3 26 14
42 39 30 26 26 22 21 18 15 11 10 8 7 6 7 7 7 9 9 5 5 6 14 23 36 27 56 48 52 61 72 72 74 73 51 29 29 20 14 10 8 6 8 8
53 47 39 30 27 28 20 20 18 15 13 10 8 7 7 8 9 8 8 7 6 4 3 7 42 52 42 54 68 72 63 67 82 83 58 58 48 45 33 26 16 13 14 11
62 52 49 38 34 27 19 20 22 20 16 14 11 9 8 9 9 10 9 8 8 8 6 6 13 47 40 32 61 69 66 91 94 88 77 61 69 54 50 48 37 25 18 18
75 68 61 43 41 28 18 24 27 24 22 17 14 12 10 9 10 11 11 10 10 10 9 7 7 11 27 22 34 48 45 61 72 66 84 64 55 58 58 59 55 50 43 33
99 86 72 61 46 22 21 22 26 22 16 19 20 16 12 10 9 10 12 13 14 12 11 10 9 15 19 20 30 37 44 42 50 47 69 76 76 65 64 68 61 53 55 53
92 98 91 71 50 25 23 39 31 23 14 22 19 20 17 14 10 9 15 16 16 17 14 13 11 10 22 25 31 27 39 50 37 48 73 81 94 85 74 85 85 62 61 60
19 75 86 89 76 25 24 37 42 28 15 21 23 24 24 16 16 17 15 17 21 20 19 17 14 12 14 37 49 54 54 46 60 72 81 80 87 94 96 87 93 81 60 56
14 16 49 88 89 38 31 46 42 25 26 26 30 30 31 29 26 29 26 27 26 24 23 23 20 19 27 40 45 49 54 85 88 91 86 90 94 90 97 86 88 91 89 70
9 9 11 30 60 60 54 66 61 38 40 35 30 34 36 38 38 37 38 42 45 38 29 28 26 20 26 40 55 66 90 94 97 94 79 92 98 91 98 83 95 81 88 88
24 17 10 10 18 54 68 63 66 55 53 51 46 38 38 43 42 40 48 60 68 58 36 30 30 27 21 41 58 73 78 83 87 93 96 88 92 88 63 85 95 78 90 86
56 56 17 10 7 11 41 65 76 78 80 73 73 63 45 42 40 43 47 61 69 68 57 34 32 32 26 26 27 37 54 55 55 46 50 53 57 50 57 89 84 97 96 94
100 52 44 15 12 7 29 38 53 90 89 87 79 74 67 54 47 51 50 48 55 60 57 41 36 38 39 38 40 42 40 41 42 42 41 42 40 45 54 78 65 66 66 60

GFSCGP_500_rhum_033.txt.gz
RH
3 2 2 2 3 11 23 32 46 67 46 44 40 74 79 66 29 21 59 40 5 8 11 12 15 15 22 26 21 18 11 6 8 12 15 26 26 19 26 22 21 17 16 11
3 2 3 3 2 7 16 21 35 65 56 39 43 71 66 82 60 29 48 60 16 6 8 11 15 14 23 24 28 25 16 16 16 14 24 40 29 12 13 17 10 7 10 6
4 4 3 2 2 2 7 12 31 55 59 33 32 46 61 79 88 75 34 57 34 4 6 9 11 12 11 20 20 14 10 9 6 18 50 40 23 15 10 9 8 7 8 6
5 4 3 2 2 2 3 12 30 54 56 37 24 28 52 74 60 85 90 7 5 4 3 4 8 6 6 10 8 6 7 5 4 5 20 22 10 12 9 9 10 10 9 7
8 8 5 4 3 2 2 6 16 42 58 54 30 26 53 58 63 79 58 5 6 4 3 2 3 4 4 3 3 3 3 3 3 3 3 8 12 10 16 16 12 18 17 14
9 9 8 5 4 3 3 3 8 20 36 20 22 18 27 51 64 84 47 14 10 4 3 2 2 2 2 2 2 2 2 2 2 2 2 3 4 7 11 14 17 18 19 18
11 8 9 8 5 3 2 2 3 9 10 3 16 16 9 45 48 75 72 20 34 19 6 4 6 19 17 6 4 4 5 5 3 3 2 3 3 3 5 9 12 17 12 9
20 12 11 9 8 5 3 2 2 2 2 4 7 4 5 23 29 59 80 20 25 16 14 18 35 32 44 36 18 24 18 17 16 14 6 6 5 4 4 4 6 8 8 6
22 16 17 15 14 10 5 4 3 2 2 2 2 2 5 14 33 44 54 61 75 53 23 18 29 34 42 52 47 34 23 16 15 19 20 21 13 13 13 8 10 12 10 9
21 19 20 20 17 14 9 7 5 4 3 3 3 3 2 6 18 50 73 61 74 80 60 47 68 76 70 65 58 30 30 19 17 14 15 25 31 34 30 22 22 22 17 13
25 21 22 22 14 13 10 8 8 7 5 4 4 4 3 3 8 25 62 67 78 80 71 84 84 81 86 97 77 52 43 34 33 19 17 13 12 14 28 35 33 35 35 27
28 26 24 21 19 19 15 13 12 10 8 6 6 5 4 3 3 11 38 67 69 72 76 80 77 87 82 75 70 73 71 59 56 34 21 19 14 10 10 10 11 16 25 36
30 31 29 25 22 18 15 15 14 12 10 7 6 4 5 5 3 4 12 32 44 50 70 66 68 82 89 78 72 64 69 75 66 46 37 25 16 14 14 13 10 5 4 12
26 33 32 28 25 22 18 17 17 15 12 8 6 6 5 5 5 5 4 12 32 60 77 77 82 75 80 95 83 77 64 67 73 60 57 35 25 23 14 14 7 6 5 4
45 34 36 35 32 27 23 22 21 17 14 10 8 6 6 7 6 6 5 6 26 33 42 62 61 64 68 76 76 78 83 54 63 52 57 50 41 29 19 13 16 15 8 6
49 51 38 34 38 32 30 26 23 19 17 15 12 9 8 8 7 6 6 4 4 15 31 36 58 46 57 63 66 67 53 57 62 62 54 63 44 42 32 32 34 26 15 12
60 50 47 40 37 31 25 24 25 24 20 18 12 11 12 11 8 7 7 7 7 5 5 8 14 24 20 31 50 39 63 67 70 80 78 73 65 60 55 43 55 51 47 37
69 59 54 44 42 34 17 22 28 26 24 20 14 12 13 13 14 9 8 8 8 8 8 7 6 5 6 7 24 62 44 64 72 68 82 88 96 48 66 73 64 58 59 58
83 74 62 54 39 25 22 20 22 24 21 20 15 12 13 14 14 14 10 9 10 9 9 9 9 9 7 7 18 22 40 58 56 56 55 60 72 68 35 74 83 61 67 67
99 85 69 53 30 21 20 28 24 20 15 19 18 16 17 18 12 14 15 11 11 12 11 10 11 12 11 8 8 8 14 30 39 38 49 37 57 86 84 90 90 82 70 70
21 89 65 66 40 18 19 26 22 20 16 18 21 20 19 17 16 19 20 14 12 13 12 12 14 15 15 14 12 10 11 12 37 49 40 38 47 72 81 98 96 97 92 91
15 14 51 56 35 18 18 26 18 18 17 21 24 26 22 20 24 20 20 20 16 14 15 14 14 17 19 19 16 14 13 27 25 27 42 46 46 46 68 75 78 96 88 96
12 11 12 17 19 19 25 25 38 30 22 25 26 27 27 29 26 26 23 20 24 22 17 18 17 19 22 23 20 19 16 16 21 22 26 39 58 58 59 76 92 99 94 90
9 9 7 8 9 12 19 22 24 32 26 28 22 27 28 30 35 33 33 31 27 26 27 26 24 24 25 27 27 23 21 23 30 40 46 76 76 81 76 71 91 77 79 80
70 26 11 5 6 7 9 14 21 24 26 33 37 39 34 34 37 40 40 42 42 36 30 33 34 33 31 29 27 30 29 32 52 60 66 83 92 89 85 80 83 95 65 76
98 86 36 4 5 4 5 6 9 13 19 36 34 37 45 52 42 35 36 39 45 45 44 39 37 41 35 31 30 31 35 30 34 44 53 56 58 57 55 51 44 39 37 44

GFSCGP_500_rhum_036.txt.gz
RH
3 2 2 2 2 7 10 17 32 72 58 50 63 77 85 78 52 21 6 6 7 11 12 12 16 18 15 15 13 11 13 12 13 14 14 16 25 29 27 24 22 22 13 6
5 3 3 3 3 4 9 20 28 72 64 41 54 75 87 74 58 28 21 6 7 10 12 12 16 17 18 22 19 13 13 6 7 12 13 21 27 15 22 21 16 7 6 5
6 5 3 2 2 2 3 11 28 45 62 51 47 50 73 70 69 65 17 18 14 9 9 11 14 16 23 23 24 18 14 12 13 13 23 40 40 17 14 13 7 7 7 6
9 5 4 2 2 2 2 7 21 35 48 47 54 50 68 83 73 62 41 17 11 7 8 11 12 12 23 23 23 14 14 11 9 15 35 45 29 22 12 10 10 8 8 7
9 9 6 4 3 2 2 3 11 27 40 52 59 40 63 78 61 68 80 45 24 4 6 9 10 6 10 9 9 7 7 6 5 7 8 19 18 10 10 9 11 12 16 12
11 13 9 7 5 3 3 3 4 14 32 36 22 30 31 53 44 65 80 33 11 4 3 5 8 4 5 5 4 4 3 3 3 3 4 5 9 11 13 15 15 14 17 18
13 9 11 8 5 4 2 2 3 8 10 6 19 20 8 22 40 71 75 46 10 5 3 2 4 6 5 4 3 3 3 2 3 3 2 2 3 3 6 10 13 14 16 14
19 14 11 9 8 6 3 2 2 2 5 10 8 6 6 19 48 59 75 68 24 4 2 2 2 2 3 2 3 2 2 2 2 2 2 2 2 3 3 4 5 10 13 10
20 20 16 14 11 9 7 4 2 2 3 7 19 4 6 12 29 55 64 64 22 5 3 3 7 23 12 5 8 12 14 13 13 11 8 5 4 5 4 4 5 6 7 10
28 24 19 26 18 14 12 8 4 3 3 2 2 2 3 8 23 39 47 57 26 6 6 7 16 20 26 20 20 22 23 24 20 14 12 16 18 15 12 10 12 11 10 12
28 26 26 23 19 15 13 11 7 5 4 3 3 4 3 5 18 28 29 37 42 7 9 14 25 28 36 54 50 40 30 32 20 19 15 14 16 23 27 30 28 21 21 23
31 27 32 19 26 25 20 18 13 7 6 5 5 15 3 4 8 21 34 47 51 46 57 78 55 72 78 52 49 49 45 39 41 46 34 18 13 11 10 15 28 31 31 29
29 31 34 30 28 25 22 18 15 14 9 8 8 7 5 5 4 8 34 45 55 53 42 65 70 66 69 62 65 57 59 65 58 58 42 37 26 14 11 8 7 7 9 6
28 33 34 32 35 34 28 18 17 15 11 8 8 8 6 6 5 4 15 46 60 66 79 72 71 72 74 71 78 77 76 71 66 61 52 49 53 23 17 12 9 7 6 7
34 33 30 38 29 25 22 24 20 15 13 10 11 9 9 6 7 7 4 12 51 66 77 65 77 82 82 85 81 86 84 82 69 62 57 55 62 48 29 18 13 12 15 13
48 43 26 30 36 29 24 22 18 18 15 13 11 11 10 8 7 5 6 4 10 48 57 55 62 78 80 78 81 75 73 71 74 62 62 64 67 65 44 26 23 28 33 33
49 48 31 36 39 37 31 24 21 19 18 16 14 17 18 14 11 10 8 6 4 12 17 19 39 52 64 75 73 56 55 62 52 48 62 68 73 76 71 39 34 37 45 54
50 48 43 47 36 32 20 33 29 28 25 22 20 20 18 16 15 14 12 8 7 5 7 10 20 31 34 50 45 45 44 63 62 34 58 79 70 64 81 76 71 50 44 55
71 60 56 55 36 30 31 28 28 27 26 27 23 21 18 17 17 18 16 12 9 8 7 6 6 6 5 7 9 20 26 20 53 34 64 70 73 62 67 79 75 72 74 64
99 76 61 53 44 33 44 28 26 25 28 31 24 21 21 20 19 18 20 18 13 9 8 8 8 7 7 7 7 7 10 8 14 45 55 57 47 62 76 83 95 67 71 69
84 97 63 59 40 33 45 36 22 27 42 31 30 23 21 20 18 18 18 18 18 16 11 9 9 9 9 9 10 10 8 8 11 35 40 50 35 53 67 54 46 64 65 58
18 54 72 56 51 40 36 31 28 37 27 21 19 18 18 20 19 20 18 18 19 19 18 12 10 10 10 11 11 12 13 11 11 15 25 19 16 28 30 32 36 35 53 60
16 13 23 47 44 33 40 34 26 20 18 22 18 16 16 19 20 19 20 17 19 21 22 18 12 11 11 12 13 13 15 15 15 14 17 23 24 33 37 33 27 25 55 87
8 11 10 11 16 22 22 15 28 24 25 21 20 21 19 21 21 20 20 18 18 20 21 22 22 18 16 13 15 16 17 17 18 17 16 17 20 34 45 43 50 43 50 59
24 9 6 8 9 11 15 20 17 25 27 33 25 24 23 25 26 25 24 22 18 21 21 23 24 25 24 23 22 21 20 20 20 21 22 22 29 39 44 52 64 74 66 65
85 38 11 4 6 7 9 11 14 15 16 18 17 17 20 21 24 24 27 26 24 23 25 27 26 26 29 30 31 30 28 26 23 24 26 27 31 42 49 54 52 59 77 85

GFSCGP_500_rhum_042.txt.gz
RH
3 2 2 2 2 3 18 64 64 89 87 97 93 77 81 89 87 76 45 88 26 5 6 7 6 9 12 20 21 16 22 19 20 26 20 18 21 30 34 34 29 22 9 4
4 2 2 2 2 2 6 42 83 88 99 84 97 90 84 92 90 91 42 89 30 6 8 7 7 8 15 20 17 14 17 28 26 26 28 25 25 27 24 20 20 12 5 6
6 4 3 3 2 2 2 8 55 84 97 95 98 81 98 83 86 94 91 39 30 9 8 8 8 6 23 13 12 12 12 19 24 20 19 21 24 25 21 15 10 6 4 11
9 7 5 4 3 2 2 3 34 93 88 91 83 92 78 60 96 76 61 81 43 14 6 9 10 11 23 14 11 10 10 10 12 13 14 16 19 15 11 14 9 5 6 7
8 7 5 5 4 3 3 4 11 89 91 92 90 85 77 74 83 85 62 48 95 19 5 9 10 12 17 14 11 9 8 7 7 8 11 15 20 15 9 9 8 6 8 9
19 14 11 8 6 4 3 16 56 44 82 75 76 88 82 68 72 81 94 93 56 45 12 8 10 11 14 15 15 6 5 4 7 11 15 22 17 12 10 9 11 11 13 18
30 18 15 11 10 5 4 7 36 39 29 19 36 80 72 77 82 83 94 83 84 68 44 7 8 10 12 18 17 16 10 11 14 24 35 23 9 7 9 10 10 12 12 12
28 22 14 14 12 7 4 3 3 10 24 40 30 32 14 64 73 83 91 90 92 73 61 10 6 9 10 14 15 18 13 7 6 7 10 10 8 7 8 8 9 9 9 10
37 26 38 24 20 14 8 4 7 22 42 42 44 35 28 45 65 75 74 87 96 80 70 8 5 6 8 9 7 7 6 4 3 3 4 3 3 3 3 4 4 5 7 11
37 75 39 37 43 22 13 21 11 25 32 36 37 36 32 30 49 64 74 84 90 86 83 16 6 3 6 5 5 5 3 2 2 2 2 2 2 3 4 4 4 3 4 5
58 71 71 70 45 22 21 34 22 12 16 39 43 37 32 38 40 50 60 60 76 97 80 47 20 3 3 5 4 3 2 2 2 2 4 8 13 14 10 11 12 14 13 11
74 62 70 84 65 51 32 21 18 15 13 24 39 38 37 35 38 41 44 51 44 94 96 56 53 16 2 3 3 2 2 2 4 7 13 22 15 15 14 10 8 8 10 16
100 61 58 91 93 81 43 28 21 40 22 16 33 36 38 37 38 43 10 39 64 67 92 75 53 25 2 2 2 3 4 10 9 15 26 28 31 29 31 31 22 12 8 7
82 49 61 61 48 76 58 56 36 24 24 22 36 42 42 43 37 40 15 14 44 60 78 81 65 34 3 2 3 6 13 11 17 34 31 37 51 42 47 51 45 35 16 9
90 64 70 73 90 90 72 48 39 20 37 26 46 43 47 40 38 38 18 20 47 75 86 98 91 39 8 4 3 5 6 8 27 43 44 50 64 61 61 58 58 58 36 18
69 57 82 76 86 95 92 74 49 54 40 62 45 52 53 57 19 21 8 11 16 32 60 55 46 31 33 10 5 24 34 34 39 42 55 63 66 68 66 68 73 65 72 54
72 86 86 56 79 84 100 91 77 70 69 59 50 54 60 59 47 21 10 9 9 12 20 26 26 36 44 25 28 51 58 57 43 46 57 51 66 74 71 70 67 66 69 73
96 50 52 79 99 99 80 90 75 80 71 67 64 57 71 78 70 48 23 6 8 15 24 29 22 26 40 51 46 60 61 69 57 56 51 50 32 27 48 54 62 72 76 67
82 68 64 89 98 87 80 84 78 76 83 74 70 57 68 88 88 72 18 8 6 9 10 9 9 14 28 45 63 62 56 56 55 47 52 59 50 48 21 42 52 71 73 76
100 100 69 83 97 98 100 100 100 90 80 82 75 76 66 69 80 84 21 14 10 8 6 4 5 5 4 5 26 28 27 30 41 61 56 70 81 80 76 42 40 47 55 55
100 100 99 89 77 98 94 94 92 99 98 81 80 83 81 72 68 24 15 17 14 11 8 7 6 5 6 6 8 9 5 6 16 38 70 73 71 79 78 79 42 25 35 32
98 97 99 100 89 99 91 98 99 100 96 79 79 63 51 37 26 19 17 18 20 19 18 13 9 8 8 7 6 6 5 6 7 8 16 40 57 69 55 48 46 44 23 19
100 96 96 100 96 100 95 97 96 89 99 94 72 53 31 21 17 14 15 19 24 25 22 18 15 13 11 9 8 7 7 8 8 7 8 8 9 9 8 8 10 12 12 14
94 98 99 100 86 90 94 94 92 90 72 60 40 33 34 27 22 18 25 25 23 27 28 25 22 19 16 14 10 9 8 8 8 9 9 10 10 11 12 12 11 11 11 12
47 59 63 65 77 80 80 76 68 64 53 37 23 16 18 24 30 32 28 28 28 26 29 28 26 22 19 16 17 14 14 12 10 9 10 10 11 12 13 14 13 13 13 13
18 8 10 25 44 48 41 52 61 54 53 44 33 29 26 22 22 22 25 27 30 30 28 27 27 24 20 20 20 19 18 18 16 13 11 10 11 11 12 12 12 13 14 15

GFSCGP_500_rhum_045.txt.gz
RH
5 3 2 2 2 2 8 12 15 37 96 65 67 67 94 74 76 56 96 73 81 24 4 4 4 5 5 14 14 19 20 10 9 14 21 22 24 26 32 36 31 20 5 5
6 3 3 2 2 2 4 7 10 59 58 97 93 80 99 94 62 72 90 75 83 45 6 7 5 4 7 15 16 15 22 12 20 16 14 17 23 30 35 30 25 12 4 21
7 6 7 3 2 2 2 3 4 26 64 99 86 87 97 97 99 100 94 62 76 69 16 7 6 8 11 16 18 12 15 22 18 21 22 22 24 26 20 16 13 8 4 28
15 12 9 5 3 2 2 2 4 30 96 96 87 88 93 97 94 100 93 72 54 61 37 7 6 6 11 21 16 10 11 22 19 21 23 22 21 17 12 12 9 4 5 12
14 12 10 6 4 3 2 3 4 29 97 98 92 91 72 77 89 84 36 69 62 48 68 10 7 9 17 17 10 9 8 13 15 16 16 16 15 13 11 9 5 5 6 8
30 27 19 9 7 4 3 3 4 40 98 96 81 98 81 93 74 64 55 66 66 44 61 6 8 10 14 16 10 8 6 7 10 12 12 13 13 9 6 6 7 7 9 25
47 31 23 16 10 5 5 7 10 55 88 74 79 100 87 83 73 73 69 80 69 71 54 27 10 10 11 12 12 11 7 7 6 7 9 13 15 8 5 9 11 11 12 12
37 31 24 21 14 9 6 4 3 3 23 12 63 60 53 71 89 96 92 81 90 89 48 20 7 7 10 13 16 15 6 6 5 8 14 31 11 6 6 11 10 9 9 9
53 34 50 30 21 14 10 7 12 18 15 29 34 39 38 41 58 89 94 96 77 73 60 18 20 7 8 11 17 18 13 12 11 14 25 16 10 8 7 6 6 7 7 8
46 86 77 56 55 25 15 31 18 15 20 24 17 13 10 20 42 71 68 89 89 88 56 34 32 14 7 9 11 13 11 9 6 7 6 4 3 2 2 2 2 3 3 4
52 85 50 90 75 24 29 36 28 18 25 33 32 16 32 31 33 31 39 78 91 94 68 28 43 33 4 5 8 6 6 4 2 2 2 2 2 3 6 13 12 11 10 10
91 75 71 64 44 54 42 35 31 22 13 11 18 32 47 45 35 36 44 43 76 88 84 24 37 61 16 3 6 4 4 3 2 2 2 3 6 16 11 9 8 8 8 9
96 73 78 64 77 84 77 47 35 31 30 16 20 39 45 42 36 39 36 43 67 85 91 45 35 54 35 4 3 4 3 2 2 2 4 8 22 18 25 26 26 20 14 9
81 58 68 68 50 69 76 70 53 44 30 16 13 40 41 41 39 39 40 41 48 84 90 70 42 49 54 14 2 2 2 2 3 4 6 23 30 34 38 50 44 40 26 24
83 39 56 64 66 72 81 82 75 52 32 23 15 39 47 52 43 45 40 32 36 74 76 86 63 42 46 32 3 2 3 3 4 6 20 33 34 46 45 50 52 54 52 51
87 72 68 68 68 84 95 91 74 58 41 30 22 40 49 53 53 46 44 40 34 52 79 85 80 48 37 41 9 5 4 6 6 13 42 42 46 58 52 56 56 58 64 56
91 94 58 69 88 98 73 66 92 78 55 38 25 40 62 58 51 48 47 42 39 35 68 89 88 72 29 26 26 4 4 9 13 36 55 58 62 64 69 69 63 50 62 53
90 93 53 75 97 85 71 95 95 87 69 51 41 56 57 65 66 60 58 41 19 16 33 48 36 28 33 40 31 15 23 24 50 65 66 76 76 75 68 66 50 56 67 68
99 93 72 90 95 81 98 98 97 84 82 65 52 71 71 84 87 72 55 37 13 8 15 14 16 20 22 28 49 39 33 62 57 52 54 59 70 75 71 49 55 64 59 72
99 92 94 90 94 100 98 96 90 96 90 76 57 73 91 97 78 71 32 18 9 6 6 9 13 15 22 20 23 37 54 52 58 53 62 60 61 64 61 49 73 79 69 60
98 100 97 100 100 96 88 96 99 98 96 90 72 83 96 64 75 59 26 16 9 10 6 6 11 13 14 10 12 23 38 47 52 56 56 58 66 61 46 64 77 88 87 72
100 100 99 100 92 96 99 97 95 92 98 96 81 96 61 39 29 26 14 7 11 9 6 6 7 7 6 6 7 9 10 10 21 36 51 52 45 53 52 37 42 48 64 69
95 98 100 96 96 96 98 96 90 96 98 96 90 90 59 35 24 16 11 8 13 15 12 10 9 8 8 6 6 6 6 5 6 12 31 31 24 25 27 22 14 14 14 15
100 92 99 86 97 87 96 95 98 82 84 94 89 63 43 34 25 18 14 13 13 20 18 20 17 13 10 8 8 8 8 7 6 6 5 5 7 9 9 8 9 10 10 9
87 84 75 83 95 83 89 87 85 83 73 75 64 55 47 37 29 22 19 19 22 22 31 26 23 23 19 15 12 13 16 12 9 7 7 8 8 8 9 9 10 10 11 11
54 53 48 51 67 56 78 93 83 74 73 60 55 53 48 46 42 34 35 38 41 47 32 25 26 26 24 21 20 21 20 17 14 12 10 8 8 9 9 10 10 10 10 10

GFSCGP_500_rhum_048.txt.gz
RH
7 6 4 2 2 2 12 15 11 15 36 73 71 84 55 53 42 71 70 76 75 37 6 7 5 3 8 14 18 25 15 15 26 28 18 22 23 21 25 21 21 8 4 24
8 5 6 3 3 2 5 12 11 24 28 96 75 76 89 77 49 73 60 98 73 40 5 7 6 4 5 11 17 22 14 12 10 26 25 22 24 30 29 21 13 6 16 31
13 8 11 7 3 3 3 3 9 17 25 60 100 99 93 94 76 68 64 83 82 61 19 6 7 5 4 11 18 21 19 11 10 13 14 19 25 28 20 16 11 4 9 53
24 20 14 13 8 4 3 3 7 18 48 97 89 89 98 98 66 73 59 52 69 80 63 8 7 9 10 14 19 15 16 15 18 19 16 19 23 18 14 11 7 4 9 37
16 24 16 11 8 6 2 4 6 19 40 70 99 78 98 96 99 55 60 55 51 83 77 22 6 6 8 17 19 16 12 18 18 20 22 22 19 15 14 9 4 4 6 10
20 35 28 13 18 11 5 5 9 20 60 73 92 81 78 79 60 66 59 39 56 78 82 45 7 6 12 19 11 11 10 13 19 20 21 19 17 15 9 7 5 5 6 9
16 37 34 38 29 22 12 8 10 30 84 72 72 83 67 68 69 55 72 64 58 83 84 83 12 9 12 17 12 10 9 8 14 16 15 15 15 14 7 6 7 9 9 21
9 28 36 42 30 33 16 7 4 13 55 70 17 42 49 68 90 81 94 79 86 84 84 95 36 10 11 13 11 11 9 8 8 9 10 10 13 16 8 6 10 12 11 11
17 10 47 52 35 33 30 8 13 10 22 50 25 29 34 86 74 79 88 93 83 86 78 88 58 10 10 11 13 14 13 6 6 5 8 12 25 12 8 8 11 9 8 9
25 7 40 51 67 42 16 21 17 10 8 14 19 19 18 41 42 61 71 74 53 78 76 61 70 26 8 10 14 17 15 8 6 7 12 30 18 9 6 6 6 6 6 5
40 9 20 95 77 30 21 21 20 26 13 8 7 4 5 22 48 54 72 67 33 40 66 77 75 70 8 9 11 17 15 12 10 10 16 13 7 5 3 3 2 3 4 3
80 21 35 74 40 46 57 26 49 29 15 16 11 3 14 27 31 63 68 83 58 47 50 75 87 70 28 6 9 10 10 10 7 5 3 3 2 2 3 10 12 10 11 12
97 60 31 52 75 79 80 54 27 19 28 14 8 6 31 29 30 35 38 68 70 45 38 40 96 82 48 4 6 7 6 6 4 3 2 2 3 10 15 12 10 9 8 7
95 80 36 49 78 96 60 50 47 41 36 15 6 28 40 43 42 38 36 40 54 41 35 33 79 78 58 15 3 4 5 4 3 2 2 5 14 20 26 29 34 34 26 18
93 73 57 66 75 77 52 57 51 40 32 22 9 30 47 46 42 36 38 36 62 72 57 47 40 48 58 61 19 2 4 3 2 2 6 17 28 29 36 39 39 36 30 29
92 100 52 60 80 71 58 65 62 60 40 31 18 33 49 47 42 41 43 39 44 52 57 72 62 58 52 62 60 7 3 2 3 3 12 28 32 40 49 44 39 42 42 42
95 96 56 84 96 92 90 95 84 73 68 54 32 16 56 64 55 48 49 44 40 44 37 65 60 30 38 63 61 53 5 10 11 11 16 41 40 47 60 52 46 46 44 42
94 80 59 95 99 97 95 94 90 76 80 75 39 44 40 56 58 61 64 54 52 47 44 33 43 28 30 56 69 77 31 9 36 41 43 54 51 64 67 65 60 65 66 68
99 97 91 100 96 92 97 98 99 71 77 83 57 56 48 58 57 56 56 55 52 46 39 28 30 20 20 20 35 61 37 20 28 43 86 93 84 82 81 73 66 59 58 60
100 95 92 97 96 96 97 96 95 80 82 87 68 54 70 65 64 69 59 60 54 42 35 28 19 10 13 15 31 44 54 36 12 34 76 89 96 95 93 92 76 71 67 68
98 98 100 94 97 97 91 94 84 100 90 88 77 55 75 63 74 72 68 54 57 50 34 30 22 12 13 16 21 35 41 44 43 58 67 80 86 91 94 91 70 62 80 82
100 98 100 75 87 99 77 96 92 90 70 72 74 61 65 48 49 71 57 46 58 53 41 38 45 30 23 18 16 21 24 35 49 49 64 71 78 74 72 72 74 74 78 80
100 97 97 82 81 95 85 94 97 80 62 75 80 65 45 43 34 53 52 55 55 60 60 50 51 59 66 44 28 15 8 13 34 50 55 59 64 66 73 68 63 50 51 51
96 96 97 78 72 95 95 88 96 98 56 67 82 71 39 36 32 54 69 61 43 44 54 48 40 25 19 20 21 11 7 6 8 12 22 30 46 47 47 40 32 24 13 11
98 99 98 62 59 72 96 96 91 96 99 88 66 55 45 41 45 52 66 67 54 34 30 34 36 21 12 11 11 10 8 6 6 7 7 10 18 24 22 11 10 9 9 10
70 96 97 100 76 77 96 94 96 95 96 99 48 42 36 40 41 57 80 77 56 41 25 28 19 17 15 14 14 14 12 11 12 10 8 7 8 8 8 6 5 7 9 9